Cadillac, MI

7:47 AM EDT on July 22, 2017 (GMT -0400)
Wexford County

Weather History for KCAD - October, 2012

Change the Weather History Date:

Thursday, October 4, 2012

  Actual Average Record
Temperature  
Mean Temperature 64 °F -  
Max Temperature 71 °F 61 °F 82 °F (2005)
Min Temperature 56 °F 38 °F 22 °F (1948)
Degree Days  
Heating Degree Days 2    
Growing Degree Days 14 (Base 50)    
Moisture  
Dew Point 54 °F    
Average Humidity 78    
Maximum Humidity 92    
Minimum Humidity 49    
Precipitation  
Precipitation 0.00 in - - ()
Sea Level Pressure  
Sea Level Pressure 29.97 in    
Wind  
Wind Speed 7 mph (SW)    
Max Wind Speed 21 mph    
Max Gust Speed 28 mph    
Visibility 8 miles    
Events Rain    
Averages and records for this station are not official NWS values.
T = Trace of Precipitation, MM = Missing Value Source: NWS Daily Summary

Daily Weather History Graph

Daily Weather History Graph

Search for Another Location

Airport or City:

Trip Planner

Search our weather history database for the weather conditions in past years. The results will help you decide how hot, cold, wet, or windy it might be!

Date:

Astronomy

Oct. 04, 2012 Rise Set
Actual Time 7:43 AM EDT 7:16 PM EDT
Civil Twilight 7:14 AM EDT 7:44 PM EDT
Nautical Twilight 6:41 AM EDT 8:18 PM EDT
Astronomical Twilight 6:07 AM EDT 8:52 PM EDT
Moon 9:41 PM EDT (10/4) 12:10 PM EDT (10/4)
Length of Visible Light 12h 30m
Length of Day
11h 32m
Waning Gibbous, 82% of the Moon is Illuminated
Oct 4
Waning Gibbous
Oct 8
Last Quarter
Oct 15
New
Oct 21
First Quarter
Oct 29
Full

Hourly Weather History & Observations

Time (EDT) Temp. Dew Point Humidity Pressure Visibility Wind Dir Wind Speed Gust Speed Precip Events Conditions
12:15 AM 56.5 °F 53.8 °F 91% 30.00 in 7.0 mi South 3.5 mph - N/A   Overcast
12:34 AM 56.5 °F 53.8 °F 91% 30.01 in 5.0 mi South 4.6 mph - N/A   Overcast
12:54 AM 56.5 °F 53.8 °F 91% 30.00 in 5.0 mi South 4.6 mph - N/A   Overcast
1:15 AM 56.5 °F 53.8 °F 91% 30.00 in 4.0 mi South 3.5 mph - N/A   Overcast
1:34 AM 56.5 °F 53.8 °F 91% 30.00 in 3.0 mi South 4.6 mph - N/A   Overcast
1:54 AM 56.5 °F 54.0 °F 91% 30.00 in 4.0 mi SSW 3.5 mph - N/A   Overcast
2:14 AM 56.5 °F 54.0 °F 91% 30.00 in 4.0 mi SW 4.6 mph - N/A   Overcast
2:34 AM 56.5 °F 54.0 °F 91% 30.00 in 5.0 mi SSW 4.6 mph - N/A   Overcast
2:54 AM 56.5 °F 54.0 °F 91% 29.99 in 5.0 mi SSW 3.5 mph - N/A   Overcast
3:14 AM 56.5 °F 54.0 °F 91% 29.99 in 5.0 mi SW 4.6 mph - N/A   Overcast
3:34 AM 56.5 °F 54.0 °F 91% 29.98 in 5.0 mi SSW 6.9 mph - N/A   Overcast
3:54 AM 56.5 °F 54.0 °F 91% 29.98 in 5.0 mi WSW 4.6 mph - N/A   Overcast
4:14 AM 56.5 °F 54.0 °F 91% 29.98 in 5.0 mi SW 4.6 mph - N/A   Overcast
4:34 AM 56.5 °F 54.0 °F 91% 29.98 in 4.0 mi SW 4.6 mph - N/A   Overcast
4:54 AM 56.5 °F 54.0 °F 91% 29.98 in 2.5 mi SSW 3.5 mph - N/A Rain Rain
5:14 AM 56.5 °F 54.1 °F 92% 29.97 in 2.5 mi SSW 3.5 mph - N/A   Drizzle
5:34 AM 56.5 °F 54.1 °F 92% 29.97 in 2.5 mi SW 4.6 mph - N/A   Drizzle
5:54 AM 56.5 °F 54.1 °F 92% 29.97 in 1.8 mi SSW 4.6 mph - N/A   Drizzle
6:14 AM 56.5 °F 54.1 °F 92% 29.98 in 2.0 mi SW 5.8 mph - N/A   Drizzle
6:34 AM 56.5 °F 54.1 °F 92% 29.98 in 3.0 mi SSW 6.9 mph - N/A Rain Rain
6:55 AM 56.5 °F 54.1 °F 92% 29.98 in 5.0 mi SW 4.6 mph - N/A   Drizzle
7:14 AM 56.5 °F 54.1 °F 92% 29.98 in 5.0 mi SW 4.6 mph - N/A Rain Heavy Rain
7:34 AM 56.5 °F 54.1 °F 92% 29.98 in 5.0 mi SW 3.5 mph - N/A Rain Rain
7:55 AM 56.5 °F 54.1 °F 92% 29.99 in 5.0 mi West 4.6 mph - N/A Rain Heavy Rain
8:14 AM 57.6 °F 55.2 °F 92% 29.98 in 3.0 mi Calm Calm - N/A   Drizzle
8:34 AM 56.5 °F 54.1 °F 92% 29.98 in 4.0 mi SW 3.5 mph - N/A   Light Drizzle
8:55 AM 56.5 °F 54.1 °F 92% 29.99 in 10.0 mi WSW 5.8 mph - N/A   Overcast
9:14 AM 57.4 °F 54.9 °F 91% 29.99 in 10.0 mi WSW 8.1 mph - N/A   Overcast
9:34 AM 57.6 °F 55.2 °F 92% 29.99 in 7.0 mi SW 8.1 mph - N/A   Overcast
9:55 AM 59.0 °F 56.1 °F 90% 29.99 in 10.0 mi WSW 9.2 mph - N/A   Overcast
10:14 AM 59.0 °F 55.8 °F 89% 29.99 in 10.0 mi SW 6.9 mph - N/A   Overcast
10:34 AM 59.0 °F 55.6 °F 88% 29.99 in 10.0 mi SW 8.1 mph - N/A   Overcast
10:54 AM 59.0 °F 55.4 °F 88% 30.00 in 10.0 mi SW 10.4 mph - N/A   Overcast
11:14 AM 61.5 °F 57.0 °F 85% 29.99 in 10.0 mi SSW 11.5 mph - N/A   Overcast
11:34 AM 61.7 °F 56.5 °F 83% 30.00 in 10.0 mi SW 11.5 mph - N/A   Mostly Cloudy
11:54 AM 62.8 °F 55.9 °F 78% 29.99 in 10.0 mi SW 13.8 mph - N/A   Mostly Cloudy
12:14 PM 64.0 °F 55.9 °F 75% 29.99 in 10.0 mi SSW 10.4 mph - N/A   Mostly Cloudy
12:34 PM 63.5 °F 55.6 °F 75% 29.99 in 10.0 mi SW 11.5 mph - N/A   Scattered Clouds
12:54 PM 64.9 °F 55.8 °F 72% 29.98 in 10.0 mi SSW 13.8 mph - N/A   Mostly Cloudy
1:14 PM 65.3 °F 55.6 °F 71% 29.98 in 10.0 mi SSW 12.7 mph - N/A   Mostly Cloudy
1:34 PM 66.6 °F 56.3 °F 69% 29.98 in 10.0 mi SSW 13.8 mph - N/A   Scattered Clouds
1:54 PM 69.1 °F 58.1 °F 68% 29.97 in 10.0 mi SSW 12.7 mph - N/A   Scattered Clouds
2:35 PM 71.6 °F 58.1 °F 62% 29.95 in 10.0 mi SSW 10.4 mph 17.3 mph N/A   Clear
2:54 PM 71.6 °F 56.1 °F 58% 29.94 in 10.0 mi SW 17.3 mph 21.9 mph N/A   Clear
3:14 PM 71.6 °F 54.3 °F 54% 29.93 in 10.0 mi SSW 17.3 mph 26.5 mph N/A   Clear
3:35 PM 71.6 °F 53.2 °F 52% 29.93 in 10.0 mi SSW 17.3 mph 23.0 mph N/A   Clear
3:54 PM 71.6 °F 52.3 °F 51% 29.92 in 10.0 mi SSW 13.8 mph 20.7 mph N/A   Clear
4:14 PM 71.6 °F 52.3 °F 51% 29.92 in 10.0 mi SSW 17.3 mph - N/A   Mostly Cloudy
4:35 PM 71.6 °F 51.3 °F 49% 29.92 in 10.0 mi SSW 12.7 mph 24.2 mph N/A   Overcast
4:54 PM 71.6 °F 52.0 °F 50% 29.92 in 10.0 mi SSW 17.3 mph 24.2 mph N/A   Overcast
5:14 PM 71.6 °F 52.7 °F 51% 29.93 in 10.0 mi SSW 13.8 mph 20.7 mph N/A   Overcast
5:35 PM 69.4 °F 51.3 °F 52% 29.93 in 10.0 mi SW 13.8 mph 24.2 mph N/A   Overcast
5:54 PM 69.1 °F 51.8 °F 54% 29.93 in 10.0 mi SSW 13.8 mph 23.0 mph N/A   Overcast
6:14 PM 66.7 °F 52.2 °F 59% 29.93 in 10.0 mi SSW 17.3 mph 24.2 mph N/A Rain Light Rain
6:35 PM 66.6 °F 53.6 °F 63% 29.93 in 10.0 mi SSW 20.7 mph 27.6 mph N/A   Overcast
6:54 PM 64.4 °F 54.0 °F 69% 29.93 in 10.0 mi SSW 18.4 mph 25.3 mph N/A   Overcast
7:14 PM 63.1 °F 55.0 °F 75% 29.93 in 10.0 mi SW 13.8 mph - N/A   Overcast
7:34 PM 62.6 °F 56.1 °F 79% 29.93 in 10.0 mi SW 11.5 mph 18.4 mph N/A   Overcast
7:54 PM 61.7 °F 55.8 °F 81% 29.93 in 10.0 mi SSW 10.4 mph 17.3 mph N/A   Overcast
8:15 PM 61.7 °F 55.9 °F 81% 29.93 in 10.0 mi SSW 10.4 mph - N/A   Mostly Cloudy
8:34 PM 61.7 °F 55.6 °F 80% 29.92 in 10.0 mi SSW 12.7 mph - N/A   Overcast
8:54 PM 61.7 °F 55.0 °F 79% 29.92 in 10.0 mi SW 16.1 mph 20.7 mph N/A   Overcast
10:14 PM 59.0 °F 49.1 °F 70% 29.94 in 10.0 mi WSW 12.7 mph 19.6 mph N/A   Overcast
10:34 PM 59.0 °F 46.9 °F 64% 29.93 in 10.0 mi WSW 10.4 mph 18.4 mph N/A   Overcast
10:54 PM 59.0 °F 45.7 °F 61% 29.94 in 10.0 mi West 15.0 mph 19.6 mph N/A   Overcast
11:14 PM 59.0 °F 45.7 °F 61% 29.94 in 10.0 mi WSW 13.8 mph 19.6 mph N/A   Overcast
11:34 PM 57.4 °F 44.2 °F 62% 29.94 in 10.0 mi WSW 13.8 mph - N/A   Overcast
11:54 PM 56.5 °F 43.2 °F 61% 29.95 in 10.0 mi WSW 13.8 mph 20.7 mph N/A   Scattered Clouds